Location: Marcé
(47.5801°N, 0.3280°W)
Time: 20:49:38
(UTC+01:00)

Tiros 1 despin weight - Pass Details

Date: 14 December 2021
Orbit: 592 x 641 km, 48.2° (Epoch: 16 January)

Event Time Altitude Azimuth Distance (km) Brightness Sun altitude
Rises 15:39:39 0° 285° (WNW) 2,839 ? 10.2°
Reaches altitude 10° 15:42:06 10° 276° (W) 1,930 ? 10.0°
Maximum altitude 15:46:04 33° 212° (SSW) 994 ? 9.5°
Drops below altitude 10° 15:50:01 10° 148° (SSE) 1,914 ? 9.1°
Sets 15:52:26 0° 139° (SE) 2,813 ? 8.9°
